SCP
0 0 0 1 1 0 1 3 7 10 5 5 5 6 4 8 5 8 6 5 4 2
0 0 0 2 3 1 3 1 3 8 5 4 4 6 9 5 8 6 7 5 4 2
0 0 0 1 1 2 3 5 4 6 7 7 5 6 9 7 6 7 5 4 5 3
0 0 0 0 0 1 2 3 3 3 3 3 3 5 7 6 6 6 6 4 5 3
0 0 0 0 0 1 2 2 2 2 2 2 3 4 5 6 4 5 4 3 3 2
0 0 1 1 1 1 1 1 1 1 1 1 2 4 4 3 3 5 3 2 2 2
0 0 0 1 1 1 0 1 1 1 1 1 2 2 2 2 4 4 2 3 3 2
0 0 0 0 1 1 1 1 0 1 1 2 2 2 3 3 4 4 3 3 2 2
0 0 0 0 1 2 1 1 1 1 1 2 1 1 2 3 4 3 3 3 2 2
0 0 0 0 1 1 2 2 1 2 2 2 2 2 2 3 3 3 3 2 1 1
0 0 0 0 2 1 3 2 2 2 3 3 5 0 2 2 3 2 2 1 1 1
0 0 0 0 2 1 2 2 2 2 3 4 2 0 1 1 2 1 1 1 1 1
0 0 0 0 1 2 2 2 2 2 3 4 1 0 0 1 1 1 1 1 1 0
0 0 0 1 1 2 2 2 2 3 4 3 1 0 0 0 1 1 0 0 0 0
Wind_Speed_500mb
41 34 39 40 38 37 47 48 39 68 71 74 76 68 62 58 60 62 63 60 58 42
36 43 47 48 50 39 43 56 63 48 63 64 69 64 67 58 61 59 56 52 47 45
38 38 41 48 55 55 56 53 53 58 75 84 73 63 62 62 60 59 54 44 43 42
41 42 44 48 50 55 58 61 59 54 70 66 55 61 64 62 52 55 50 40 43 44
44 44 48 50 54 59 55 56 55 53 61 62 61 59 64 62 48 46 44 45 43 38
49 48 51 52 52 57 53 52 50 48 50 52 56 59 59 52 48 48 44 44 41 38
52 53 50 52 52 53 51 52 53 53 52 54 53 55 53 48 48 46 43 43 41 37
56 54 52 50 53 54 56 55 55 55 54 56 57 57 54 50 50 48 42 40 37 35
55 54 54 56 57 55 58 56 56 58 56 59 59 58 57 55 53 46 39 39 34 31
57 58 57 54 55 58 60 59 60 62 63 62 66 57 64 64 47 43 43 37 32 30
59 58 58 58 62 60 59 59 61 66 64 63 63 62 66 64 43 39 36 32 30 27
59 60 59 63 67 63 59 61 63 66 66 64 70 69 63 60 40 36 33 28 25 29
60 62 63 69 65 66 61 64 62 68 69 74 70 65 61 56 37 36 27 27 34 37
64 69 64 67 69 67 65 65 65 68 68 69 65 63 65 53 38 34 30 26 21 22
Wind_Direction_500mb
275 269 263 268 263 250 244 242 242 248 251 240 234 244 250 238 255 240 248 233 245 233
276 271 264 257 251 255 259 238 231 245 256 249 248 252 249 244 235 233 237 240 241 237
283 276 268 267 262 260 253 251 252 236 246 250 254 248 240 237 225 232 230 230 238 228
285 279 269 263 266 264 262 255 252 251 245 252 243 235 231 230 221 226 224 226 230 235
277 278 272 265 258 257 259 262 264 254 253 236 241 234 230 226 207 216 215 218 217 222
270 271 272 267 260 253 252 252 251 245 238 229 226 221 218 211 204 214 216 220 221 219
265 264 265 264 263 256 250 248 245 239 231 225 218 214 210 205 204 211 216 220 218 216
261 265 263 260 257 253 247 243 240 233 226 221 216 213 206 204 203 209 212 215 217 218
258 263 259 259 255 252 247 241 236 229 223 217 212 213 207 203 203 204 210 208 209 211
258 262 258 255 251 248 246 238 234 223 220 214 211 211 209 201 196 200 203 203 202 206
255 257 252 251 253 247 245 235 228 220 216 208 203 207 208 199 191 188 193 194 201 210
253 253 251 249 254 246 241 228 220 212 206 200 202 204 202 193 186 185 187 195 210 215
252 245 253 244 253 241 229 220 210 205 199 198 204 193 194 172 179 184 187 191 213 225
248 252 248 245 242 234 215 207 202 196 188 198 198 180 169 167 181 183 189 206 212 218
Wind_Speed_850mb
41 34 39 40 38 37 47 48 39 68 71 74 76 68 62 58 60 62 63 60 58 42
36 43 47 48 50 39 43 56 63 48 63 64 69 64 67 58 61 59 56 52 47 45
38 38 41 48 55 55 56 53 53 58 75 84 73 63 62 62 60 59 54 44 43 42
41 42 44 48 50 55 58 61 59 54 70 66 55 61 64 62 52 55 50 40 43 44
44 44 48 50 54 59 55 56 55 53 61 62 61 59 64 62 48 46 44 45 43 38
49 48 51 52 52 57 53 52 50 48 50 52 56 59 59 52 48 48 44 44 41 38
52 53 50 52 52 53 51 52 53 53 52 54 53 55 53 48 48 46 43 43 41 37
56 54 52 50 53 54 56 55 55 55 54 56 57 57 54 50 50 48 42 40 37 35
55 54 54 56 57 55 58 56 56 58 56 59 59 58 57 55 53 46 39 39 34 31
57 58 57 54 55 58 60 59 60 62 63 62 66 57 64 64 47 43 43 37 32 30
59 58 58 58 62 60 59 59 61 66 64 63 63 62 66 64 43 39 36 32 30 27
59 60 59 63 67 63 59 61 63 66 66 64 70 69 63 60 40 36 33 28 25 29
60 62 63 69 65 66 61 64 62 68 69 74 70 65 61 56 37 36 27 27 34 37
64 69 64 67 69 67 65 65 65 68 68 69 65 63 65 53 38 34 30 26 21 22
Wind_Direction_850mb
275 269 263 268 263 250 244 242 242 248 251 240 234 244 250 238 255 240 248 233 245 233
276 271 264 257 251 255 259 238 231 245 256 249 248 252 249 244 235 233 237 240 241 237
283 276 268 267 262 260 253 251 252 236 246 250 254 248 240 237 225 232 230 230 238 228
285 279 269 263 266 264 262 255 252 251 245 252 243 235 231 230 221 226 224 226 230 235
277 278 272 265 258 257 259 262 264 254 253 236 241 234 230 226 207 216 215 218 217 222
270 271 272 267 260 253 252 252 251 245 238 229 226 221 218 211 204 214 216 220 221 219
265 264 265 264 263 256 250 248 245 239 231 225 218 214 210 205 204 211 216 220 218 216
261 265 263 260 257 253 247 243 240 233 226 221 216 213 206 204 203 209 212 215 217 218
258 263 259 259 255 252 247 241 236 229 223 217 212 213 207 203 203 204 210 208 209 211
258 262 258 255 251 248 246 238 234 223 220 214 211 211 209 201 196 200 203 203 202 206
255 257 252 251 253 247 245 235 228 220 216 208 203 207 208 199 191 188 193 194 201 210
253 253 251 249 254 246 241 228 220 212 206 200 202 204 202 193 186 185 187 195 210 215
252 245 253 244 253 241 229 220 210 205 199 198 204 193 194 172 179 184 187 191 213 225
248 252 248 245 242 234 215 207 202 196 188 198 198 180 169 167 181 183 189 206 212 218